When you browse on this site, cookies collect data to enhance your experience and personalize the content and advertising you see.
Visit our Privacy Policy to learn more. By continuing to use the site, you agree to this use of cookies and data.
  • In Germany
  • List of Countries
  • For 7 days
  • Water Temperature
  • Satellite Maps
  • Weather Map
  • Weather Widgets
  • user-avatar
    Login

    Hourly Weather Canberra

    Today, 23 May, Thursday

    Time Temperature Precipitation Wind Pressure Humidity
    00:00 +11°C° 0 mm 1 mps 717 mmHg 95%
    01:00 +11°C° 0 mm 1 mps 717 mmHg 96%
    02:00 +11°C° 0 mm 1 mps 717 mmHg 96%
    03:00 +11°C° 0 mm 1 mps 717 mmHg 95%
    04:00 +12°C° 0 mm 1 mps 717 mmHg 95%
    05:00 +11°C° 0 mm 1 mps 717 mmHg 95%
    06:00 +11°C° 0 mm 1 mps 717 mmHg 95%
    07:00 +11°C° 0 mm 1 mps 717 mmHg 95%
    08:00 +12°C° 0 mm 1 mps 717 mmHg 90%
    09:00 +13°C° 0 mm 1 mps 717 mmHg 85%
    10:00 +15°C° 0 mm 1 mps 717 mmHg 80%
    11:00 +16°C° 0 mm 1 mps 717 mmHg 72%
    12:00 +19°C° 0 mm 1 mps 717 mmHg 64%
    13:00 +20°C° 0 mm 1 mps 716 mmHg 56%
    14:00 +20°C° 0 mm 1 mps 716 mmHg 57%
    15:00 +19°C° 0 mm 1 mps 716 mmHg 57%
    16:00 +19°C° 0 mm 1 mps 715 mmHg 58%
    17:00 +16°C° 0 mm 1 mps 715 mmHg 66%
    18:00 +14°C° 0 mm 1 mps 715 mmHg 74%
    19:00 +11°C° 0 mm 1 mps 715 mmHg 82%
    20:00 +11°C° 0 mm 1 mps 715 mmHg 83%
    21:00 +10°C° 0 mm 1 mps 715 mmHg 84%
    22:00 +9°C° 0 mm 1 mps 715 mmHg 86%
    23:00 +9°C° 0 mm 1 mps 715 mmHg 84%

    Tomorrow, 24 May, Friday

    Time Temperature Precipitation Wind Pressure Humidity
    00:00 +9°C° 0 mm 1 mps 715 mmHg 83%
    01:00 +8°C° 0 mm 1 mps 714 mmHg 82%
    02:00 +8°C° 0 mm 1 mps 714 mmHg 79%
    03:00 +7°C° 0 mm 1 mps 714 mmHg 77%
    04:00 +7°C° 0 mm 1 mps 713 mmHg 75%
    05:00 +7°C° 0 mm 1 mps 713 mmHg 74%
    06:00 +6°C° 0 mm 1 mps 713 mmHg 73%
    07:00 +6°C° 0 mm 1 mps 713 mmHg 71%
    08:00 +9°C° 0 mm 1 mps 713 mmHg 63%
    09:00 +12°C° 0 mm 1 mps 714 mmHg 54%
    10:00 +15°C° 0 mm 2 mps 714 mmHg 45%
    11:00 +16°C° 0 mm 2 mps 713 mmHg 45%
    12:00 +18°C° 0 mm 3 mps 713 mmHg 45%
    13:00 +19°C° 0 mm 4 mps 712 mmHg 46%
    14:00 +18°C° 0 mm 4 mps 712 mmHg 49%
    15:00 +18°C° 0 mm 3 mps 712 mmHg 53%
    16:00 +17°C° 0 mm 3 mps 711 mmHg 56%
    17:00 +15°C° 0 mm 2 mps 711 mmHg 64%
    18:00 +13°C° 0 mm 2 mps 711 mmHg 72%
    19:00 +11°C° 0 mm 1 mps 711 mmHg 79%
    20:00 +11°C° 0 mm 1 mps 711 mmHg 81%
    21:00 +11°C° 0 mm 1 mps 711 mmHg 83%
    22:00 +10°C° 0 mm 1 mps 711 mmHg 85%
    23:00 +10°C° 0 mm 1 mps 711 mmHg 85%

    Day after tomorrow, 25 May, Saturday

    Time Temperature Precipitation Wind Pressure Humidity
    00:00 +10°C° 0 mm 1 mps 711 mmHg 86%
    01:00 +10°C° 0 mm 1 mps 710 mmHg 87%
    02:00 +10°C° 0 mm 1 mps 710 mmHg 87%
    03:00 +9°C° 0 mm 1 mps 710 mmHg 88%
    04:00 +9°C° 0 mm 1 mps 710 mmHg 88%
    05:00 +9°C° 0 mm 1 mps 710 mmHg 89%
    06:00 +9°C° 0 mm 1 mps 710 mmHg 90%
    07:00 +8°C° 0 mm 1 mps 710 mmHg 91%
    08:00 +10°C° 0 mm 2 mps 710 mmHg 80%
    09:00 +12°C° 0 mm 3 mps 710 mmHg 70%
    10:00 +16°C° 0 mm 3 mps 711 mmHg 59%
    11:00 +17°C° 0 mm 4 mps 710 mmHg 54%
    12:00 +19°C° 0 mm 5 mps 710 mmHg 48%
    13:00 +20°C° 0 mm 6 mps 709 mmHg 43%
    14:00 +20°C° 0 mm 6 mps 709 mmHg 46%
    15:00 +19°C° 0 mm 5 mps 709 mmHg 49%
    16:00 +18°C° 0 mm 4 mps 708 mmHg 51%
    17:00 +17°C° 0 mm 4 mps 708 mmHg 55%
    18:00 +14°C° 0 mm 3 mps 708 mmHg 58%
    19:00 +13°C° 0 mm 3 mps 708 mmHg 61%
    20:00 +12°C° 0 mm 3 mps 708 mmHg 63%
    21:00 +13°C° 0 mm 2 mps 708 mmHg 65%
    22:00 +12°C° 0 mm 2 mps 708 mmHg 67%
    23:00 +12°C° 0.1 mm 2 mps 707 mmHg 72%

    26 May, Sunday

    Time Temperature Precipitation Wind Pressure Humidity
    00:00 +11°C° 0.1 mm 3 mps 707 mmHg 76%
    01:00 +10°C° 0.1 mm 3 mps 706 mmHg 81%
    02:00 +10°C° 0.3 mm 3 mps 706 mmHg 84%
    03:00 +10°C° 0.3 mm 3 mps 706 mmHg 86%
    04:00 +10°C° 0.3 mm 4 mps 706 mmHg 89%
    05:00 +10°C° 0.4 mm 4 mps 706 mmHg 91%
    06:00 +10°C° 0.4 mm 4 mps 706 mmHg 92%
    07:00 +10°C° 0.4 mm 4 mps 707 mmHg 94%
    08:00 +10°C° 0.2 mm 4 mps 707 mmHg 89%
    09:00 +9°C° 0.2 mm 5 mps 707 mmHg 84%
    10:00 +10°C° 0.2 mm 5 mps 707 mmHg 78%
    11:00 +10°C° 0 mm 6 mps 707 mmHg 70%
    12:00 +11°C° 0 mm 6 mps 707 mmHg 62%
    13:00 +11°C° 0 mm 7 mps 706 mmHg 54%
    14:00 +11°C° 0 mm 6 mps 706 mmHg 56%
    15:00 +10°C° 0 mm 6 mps 706 mmHg 58%
    16:00 +9°C° 0 mm 6 mps 706 mmHg 60%
    17:00 +8°C° 0 mm 5 mps 706 mmHg 64%
    18:00 +7°C° 0 mm 5 mps 707 mmHg 67%
    19:00 +6°C° 0 mm 4 mps 707 mmHg 70%
    20:00 +6°C° 0 mm 5 mps 707 mmHg 69%
    21:00 +7°C° 0 mm 5 mps 707 mmHg 68%
    22:00 +7°C° 0 mm 6 mps 707 mmHg 67%
    23:00 +7°C° 0 mm 6 mps 707 mmHg 68%

    27 May, Monday

    Time Temperature Precipitation Wind Pressure Humidity
    00:00 +6°C° 0 mm 7 mps 707 mmHg 68%
    01:00 +6°C° 0 mm 7 mps 707 mmHg 69%
    02:00 +7°C° 0 mm 6 mps 707 mmHg 70%
    03:00 +5°C° 0 mm 6 mps 707 mmHg 72%
    04:00 +6°C° 0 mm 5 mps 707 mmHg 73%
    05:00 +6°C° 0 mm 5 mps 707 mmHg 75%
    06:00 +5°C° 0 mm 5 mps 707 mmHg 77%
    07:00 +5°C° 0 mm 4 mps 708 mmHg 79%
    08:00 +6°C° 0 mm 5 mps 708 mmHg 73%
    09:00 +7°C° 0 mm 5 mps 708 mmHg 68%
    10:00 +8°C° 0 mm 6 mps 708 mmHg 62%
    11:00 +8°C° 0 mm 6 mps 708 mmHg 63%
    12:00 +8°C° 0 mm 6 mps 707 mmHg 63%
    13:00 +8°C° 0 mm 6 mps 707 mmHg 64%
    14:00 +8°C° 0 mm 6 mps 707 mmHg 66%
    15:00 +8°C° 0 mm 6 mps 707 mmHg 68%
    16:00 +8°C° 0 mm 6 mps 707 mmHg 71%
    17:00 +8°C° 0 mm 6 mps 707 mmHg 73%
    18:00 +7°C° 0 mm 6 mps 707 mmHg 74%
    19:00 +7°C° 0 mm 5 mps 707 mmHg 76%
    20:00 +7°C° 0 mm 5 mps 707 mmHg 77%
    21:00 +7°C° 0 mm 5 mps 707 mmHg 78%
    22:00 +7°C° 0 mm 5 mps 707 mmHg 79%
    23:00 +7°C° 0 mm 5 mps 706 mmHg 79%

    28 May, Tuesday

    Time Temperature Precipitation Wind Pressure Humidity
    00:00 +7°C° 0 mm 5 mps 706 mmHg 78%
    01:00 +7°C° 0 mm 5 mps 705 mmHg 78%
    02:00 +7°C° 0.1 mm 6 mps 705 mmHg 80%
    03:00 +7°C° 0.1 mm 6 mps 704 mmHg 83%
    04:00 +7°C° 0.1 mm 6 mps 704 mmHg 85%
    05:00 +7°C° 0.1 mm 6 mps 704 mmHg 84%
    06:00 +7°C° 0.1 mm 6 mps 704 mmHg 84%
    07:00 +7°C° 0.1 mm 6 mps 704 mmHg 84%
    08:00 +8°C° 0 mm 7 mps 704 mmHg 82%
    09:00 +8°C° 0 mm 7 mps 704 mmHg 80%
    10:00 +7°C° 0 mm 8 mps 704 mmHg 78%
    11:00 +9°C° 0 mm 8 mps 703 mmHg 76%
    12:00 +9°C° 0 mm 8 mps 703 mmHg 75%
    13:00 +8°C° 0 mm 9 mps 702 mmHg 74%
    14:00 +10°C° 0 mm 9 mps 702 mmHg 73%
    15:00 +10°C° 0 mm 9 mps 702 mmHg 72%
    16:00 +10°C° 0 mm 9 mps 702 mmHg 71%
    17:00 +10°C° 0 mm 9 mps 702 mmHg 73%
    18:00 +9°C° 0 mm 8 mps 702 mmHg 76%
    19:00 +9°C° 0 mm 8 mps 703 mmHg 78%
    20:00 +9°C° 0 mm 8 mps 703 mmHg 79%
    21:00 +8°C° 0 mm 7 mps 703 mmHg 80%
    22:00 +8°C° 0 mm 7 mps 703 mmHg 81%
    23:00 +6°C° 0 mm 7 mps 703 mmHg 77%
    Show more